• In Russia
  • List of Countries
  • For 7 days
  • Water Temperature
  • Satellite Maps
  • Weather Map
  • Weather Widgets
  • user-avatar
    Login

    Hourly Weather Boma

    Today, 17 August, Friday

    Time Temperature Precipitation Wind Pressure Humidity
    00:00 +22°C° 0.9 mm 1 mps 702 mmHg 98%
    01:00 +20°C° 0 mm 0 mps 702 mmHg 99%
    02:00 +20°C° 0.2 mm 0 mps 702 mmHg 99%
    03:00 +22°C° 0.2 mm 1 mps 702 mmHg 99%
    04:00 +22°C° 0.2 mm 1 mps 701 mmHg 99%
    05:00 +22°C° 0.1 mm 1 mps 702 mmHg 99%
    06:00 +22°C° 0.1 mm 1 mps 702 mmHg 99%
    07:00 +22°C° 0 mm 1 mps 702 mmHg 98%
    08:00 +23°C° 0.2 mm 1 mps 702 mmHg 96%
    09:00 +23°C° 0.2 mm 1 mps 703 mmHg 94%
    10:00 +24°C° 0.2 mm 1 mps 703 mmHg 92%
    11:00 +24°C° 0.7 mm 1 mps 702 mmHg 91%
    12:00 +23°C° 0.7 mm 0 mps 702 mmHg 91%
    13:00 +23°C° 0 mm 0 mps 702 mmHg 90%
    14:00 +23°C° 0.4 mm 0 mps 701 mmHg 90%
    15:00 +23°C° 0.4 mm 0 mps 701 mmHg 90%
    16:00 +23°C° 0.4 mm 0 mps 700 mmHg 90%
    17:00 +22°C° 0.3 mm 0 mps 700 mmHg 93%
    18:00 +21°C° 0.3 mm 0 mps 700 mmHg 95%
    19:00 +20°C° 0.3 mm 0 mps 700 mmHg 98%
    20:00 +20°C° 0.3 mm 0 mps 700 mmHg 98%
    21:00 +20°C° 0.3 mm 0 mps 701 mmHg 98%
    22:00 +20°C° 0.3 mm 0 mps 701 mmHg 98%
    23:00 +20°C° 0.3 mm 0 mps 701 mmHg 98%

    Tomorrow, 18 August, Saturday

    Time Temperature Precipitation Wind Pressure Humidity
    00:00 +20°C° 0.3 mm 0 mps 701 mmHg 98%
    01:00 +21°C° 0.3 mm 1 mps 701 mmHg 99%
    02:00 +21°C° 0 mm 1 mps 700 mmHg 99%
    03:00 +21°C° 0 mm 1 mps 700 mmHg 99%
    04:00 +21°C° 0 mm 1 mps 700 mmHg 99%
    05:00 +21°C° 0 mm 1 mps 700 mmHg 98%
    06:00 +22°C° 0 mm 1 mps 700 mmHg 98%
    07:00 +22°C° 0 mm 1 mps 701 mmHg 98%
    08:00 +22°C° 0 mm 1 mps 701 mmHg 95%
    09:00 +23°C° 0 mm 1 mps 701 mmHg 93%
    10:00 +23°C° 0 mm 1 mps 702 mmHg 90%
    11:00 +25°C° 0 mm 1 mps 701 mmHg 83%
    12:00 +26°C° 0 mm 1 mps 701 mmHg 76%
    13:00 +27°C° 0 mm 1 mps 701 mmHg 70%
    14:00 +28°C° 0.1 mm 1 mps 700 mmHg 66%
    15:00 +29°C° 0.1 mm 1 mps 700 mmHg 62%
    16:00 +30°C° 0.1 mm 1 mps 699 mmHg 58%
    17:00 +28°C° 0.2 mm 1 mps 700 mmHg 65%
    18:00 +26°C° 0.2 mm 1 mps 700 mmHg 72%
    19:00 +23°C° 0.2 mm 0 mps 700 mmHg 80%
    20:00 +22°C° 0.2 mm 0 mps 700 mmHg 83%
    21:00 +23°C° 0.2 mm 1 mps 701 mmHg 87%
    22:00 +23°C° 0.2 mm 1 mps 701 mmHg 91%
    23:00 +22°C° 0.2 mm 1 mps 701 mmHg 93%

    Day after tomorrow, 19 August, Sunday

    Time Temperature Precipitation Wind Pressure Humidity
    00:00 +22°C° 0.2 mm 1 mps 701 mmHg 95%
    01:00 +19°C° 0.2 mm 0 mps 701 mmHg 97%
    02:00 +21°C° 0 mm 1 mps 701 mmHg 98%
    03:00 +21°C° 0 mm 1 mps 700 mmHg 98%
    04:00 +21°C° 0 mm 1 mps 700 mmHg 98%
    05:00 +21°C° 0 mm 1 mps 700 mmHg 97%
    06:00 +22°C° 0 mm 1 mps 701 mmHg 96%
    07:00 +22°C° 0 mm 1 mps 701 mmHg 95%
    08:00 +23°C° 0 mm 1 mps 702 mmHg 90%
    09:00 +24°C° 0 mm 1 mps 702 mmHg 85%
    10:00 +25°C° 0 mm 1 mps 703 mmHg 80%
    11:00 +26°C° 0.7 mm 1 mps 702 mmHg 81%
    12:00 +26°C° 0.7 mm 1 mps 702 mmHg 83%
    13:00 +27°C° 0.7 mm 1 mps 701 mmHg 85%
    14:00 +26°C° 0.9 mm 1 mps 700 mmHg 85%
    15:00 +26°C° 0.9 mm 1 mps 700 mmHg 86%
    16:00 +26°C° 0.9 mm 1 mps 699 mmHg 86%
    17:00 +25°C° 0.6 mm 1 mps 700 mmHg 90%
    18:00 +24°C° 0.6 mm 1 mps 700 mmHg 93%
    19:00 +23°C° 0.6 mm 1 mps 700 mmHg 96%
    20:00 +23°C° 0.8 mm 1 mps 701 mmHg 97%
    21:00 +22°C° 0.8 mm 1 mps 701 mmHg 97%
    22:00 +22°C° 0.8 mm 1 mps 702 mmHg 97%
    23:00 +22°C° 0.1 mm 1 mps 702 mmHg 98%

    20 August, Monday

    Time Temperature Precipitation Wind Pressure Humidity
    00:00 +22°C° 0.1 mm 1 mps 702 mmHg 98%
    01:00 +21°C° 0.1 mm 1 mps 701 mmHg 98%
    02:00 +21°C° 0.1 mm 1 mps 701 mmHg 98%
    03:00 +21°C° 0.1 mm 1 mps 701 mmHg 98%
    04:00 +21°C° 0.1 mm 1 mps 700 mmHg 99%
    05:00 +21°C° 0.1 mm 1 mps 701 mmHg 98%
    06:00 +21°C° 0.1 mm 1 mps 701 mmHg 98%
    07:00 +21°C° 0.1 mm 1 mps 702 mmHg 98%
    08:00 +22°C° 0 mm 1 mps 702 mmHg 95%
    09:00 +23°C° 0 mm 1 mps 703 mmHg 91%
    10:00 +24°C° 0 mm 1 mps 703 mmHg 88%
    11:00 +25°C° 0.4 mm 1 mps 702 mmHg 84%
    12:00 +26°C° 0.4 mm 1 mps 702 mmHg 81%
    13:00 +27°C° 0.4 mm 1 mps 701 mmHg 77%
    14:00 +27°C° 0.7 mm 1 mps 700 mmHg 79%
    15:00 +27°C° 0.7 mm 1 mps 700 mmHg 81%
    16:00 +26°C° 0.7 mm 1 mps 699 mmHg 83%
    17:00 +25°C° 1.6 mm 1 mps 699 mmHg 87%
    18:00 +24°C° 1.6 mm 1 mps 700 mmHg 92%
    19:00 +22°C° 1.6 mm 1 mps 700 mmHg 96%
    20:00 +22°C° 1.9 mm 1 mps 701 mmHg 97%
    21:00 +22°C° 1.9 mm 1 mps 701 mmHg 97%
    22:00 +22°C° 1.9 mm 1 mps 702 mmHg 98%
    23:00 +22°C° 2.4 mm 1 mps 702 mmHg 98%

    21 August, Tuesday

    Time Temperature Precipitation Wind Pressure Humidity
    00:00 +22°C° 2.4 mm 1 mps 701 mmHg 98%
    01:00 +21°C° 2.4 mm 2 mps 701 mmHg 99%
    02:00 +22°C° 1.2 mm 1 mps 701 mmHg 99%
    03:00 +21°C° 1.2 mm 1 mps 701 mmHg 99%
    04:00 +21°C° 1.2 mm 1 mps 701 mmHg 99%
    05:00 +21°C° 0.4 mm 1 mps 701 mmHg 99%
    06:00 +21°C° 0.4 mm 1 mps 701 mmHg 99%
    07:00 +21°C° 0.4 mm 1 mps 702 mmHg 99%
    08:00 +22°C° 0.1 mm 1 mps 702 mmHg 96%
    09:00 +23°C° 0.1 mm 1 mps 703 mmHg 94%
    10:00 +24°C° 0.1 mm 1 mps 703 mmHg 91%
    11:00 +24°C° 0.2 mm 1 mps 703 mmHg 87%
    12:00 +25°C° 0.2 mm 2 mps 702 mmHg 82%
    13:00 +26°C° 0.2 mm 2 mps 701 mmHg 77%
    14:00 +27°C° 0.2 mm 2 mps 701 mmHg 76%
    15:00 +27°C° 0.2 mm 1 mps 700 mmHg 74%
    16:00 +27°C° 0.2 mm 1 mps 699 mmHg 72%
    17:00 +26°C° 0.1 mm 1 mps 700 mmHg 78%
    18:00 +25°C° 0.1 mm 1 mps 700 mmHg 84%
    19:00 +23°C° 0.1 mm 1 mps 701 mmHg 90%
    20:00 +23°C° 0.3 mm 1 mps 701 mmHg 92%
    21:00 +22°C° 0.3 mm 1 mps 701 mmHg 95%
    22:00 +22°C° 0.3 mm 1 mps 702 mmHg 97%
    23:00 +22°C° 0 mm 1 mps 702 mmHg 98%

    22 August, Wednesday

    Time Temperature Precipitation Wind Pressure Humidity
    00:00 +22°C° 0 mm 1 mps 701 mmHg 98%
    01:00 +21°C° 0 mm 1 mps 701 mmHg 98%
    02:00 +21°C° 0 mm 1 mps 701 mmHg 98%
    03:00 +21°C° 0 mm 1 mps 701 mmHg 97%
    04:00 +21°C° 0 mm 1 mps 701 mmHg 97%
    05:00 +21°C° 0.3 mm 1 mps 701 mmHg 97%
    06:00 +19°C° 0.3 mm 0 mps 701 mmHg 97%
    07:00 +20°C° 0.3 mm 0 mps 702 mmHg 96%
    08:00 +20°C° 0.4 mm 0 mps 702 mmHg 95%
    09:00 +23°C° 0.4 mm 1 mps 703 mmHg 94%
    10:00 +23°C° 0.4 mm 1 mps 703 mmHg 93%
    11:00 +24°C° 0.3 mm 1 mps 702 mmHg 89%
    12:00 +25°C° 0.3 mm 1 mps 702 mmHg 85%
    13:00 +26°C° 0.3 mm 1 mps 701 mmHg 80%
    14:00 +27°C° 0.4 mm 1 mps 701 mmHg 80%
    15:00 +27°C° 0.4 mm 1 mps 700 mmHg 79%
    16:00 +27°C° 0.4 mm 1 mps 700 mmHg 79%
    17:00 +26°C° 0.7 mm 1 mps 700 mmHg 85%
    18:00 +24°C° 0.7 mm 1 mps 700 mmHg 90%
    19:00 +23°C° 0.7 mm 1 mps 701 mmHg 96%
    20:00 +23°C° 0.9 mm 1 mps 701 mmHg 97%
    21:00 +22°C° 0.9 mm 1 mps 702 mmHg 98%
    22:00 +22°C° 0.9 mm 1 mps 702 mmHg 98%
    23:00 +22°C° 0.7 mm 1 mps 702 mmHg 99%
    Show more